Tracking 18630 objects as of 25-May-2017
HD Live streaming from Space Station
objects crossing your sky now

STEP 2

Track STEP 2 now!
10-day predictions
STEP 2 is classified as:


NORAD ID: 23105
Int'l Code: 1994-029A
Perigee: 574.6 km
Apogee: 727.4 km
Inclination: 82.0 °
Period: 97.6 minutes
Semi major axis: 7021 km
RCS: 2.0652 m2 (large)
Launch date: May 19, 1994
Source: United States (US)
Launch site: AIR FORCE WESTERN TEST RANGE (AFWTR)
Your satellite tracking list
Your tracking list is empty





NASA's NSSDC Master Catalog

Two Line Element Set (TLE):
1 23105U 94029A   17144.82676625 +.00000378 +00000-0 +47219-4 0  9999
2 23105 081.9516 250.4345 0108764 143.5543 217.3135 14.75408070230549
Source of the keplerian elements: AFSPC